Flag for Taiwan Weather past 2 weeks in Kaohsiung, Taiwan

77 °F

Partly cloudy.

Feels Like: 79 °F
Forecast: 75 / 85 °F
Wind: 6 mph from Northeast

Location: Kaohsiung International Airport

Current Time: Oct 11, 2015 at 4:18:45 AM

Latest Report: Oct 11, 2015 at 3:00 AM

Visibility: 5 mi

Pressure: 29.89 "Hg

Humidity: 79%

Dew point: 70 °F

Location of KaohsiungLocation

Historic Weather in Kaohsiung — Graph


Kaohsiung temperature yesterday

Maximum temperature yesterday: 86 °F (at 9:30 AM)
Minimum temperature yesterday: 79 °F (at 12:00 AM)
Average temperature yesterday: 83 °F

Past Weeks' High & Low Weather Summary

High91 °F (Sep 26, 1:30 PM)100% (Oct 1, 3:00 AM)30.07 "Hg (Oct 1, 3:00 AM)
Low77 °F (Sep 28, 1:00 AM)55% (Oct 8, 12:30 PM)29.33 "Hg (Sep 28, 6:00 PM)
Average84 °F79%29.84 "Hg
* Reported Sep 26 3:00 AM — Oct 11 3:00 AM, Kaohsiung, Weather by CustomWeather, © 2015

Note: Actual official high and low records may vary slightly from our data, if they occured in-between our weather recording intervals... More about our weather records


Kaohsiung weather history for previous 24 hours

Time TempWeatherWind HumidityBarometerVisibility
3:00 AM
Sun, Oct 11
77 °FPartly cloudy.6 mph79%29.89 "Hg5 mi
2:00 AM77 °FPartly cloudy.7 mph79%29.92 "Hg5 mi
1:00 AM79 °FPartly cloudy.8 mph74%29.92 "Hg5 mi
12:00 AM79 °FPassing clouds.8 mph74%29.92 "Hg5 mi
11:30 PM
Sat, Oct 10
81 °FPassing clouds.7 mph74%29.92 "Hg6 mi
11:00 PM81 °FPassing clouds.7 mph74%29.92 "Hg6 mi
10:00 PM81 °FPassing clouds.5 mph74%29.92 "Hg5 mi
9:30 PM82 °FPassing clouds.3 mph70%29.92 "Hg5 mi
9:00 PM82 °FPassing clouds.5 mph74%29.92 "HgN/A
8:30 PM82 °FPassing clouds.5 mph74%29.92 "HgN/A
8:00 PM82 °FPassing clouds.3 mph74%29.92 "HgN/A
7:30 PM82 °FPassing clouds.7 mph79%29.92 "HgN/A
7:00 PM82 °FPassing clouds.7 mph79%29.89 "HgN/A
6:30 PM82 °FPassing clouds.7 mph79%29.89 "HgN/A
6:00 PM82 °FPassing clouds.8 mph79%29.86 "HgN/A
5:30 PM82 °FBroken clouds.8 mph79%29.86 "HgN/A
5:00 PM82 °FPassing clouds.7 mph79%29.86 "HgN/A
4:30 PM82 °FScattered clouds.8 mph79%29.83 "Hg5 mi
4:00 PM84 °FScattered clouds.9 mph74%29.83 "Hg5 mi
3:30 PM86 °FScattered clouds.8 mph70%29.83 "Hg4 mi
3:00 PM86 °FScattered clouds.6 mph70%29.83 "Hg5 mi
2:30 PM86 °FScattered clouds.8 mph70%29.83 "Hg4 mi
2:00 PM86 °FScattered clouds.8 mph66%29.83 "HgN/A
1:30 PM86 °FPassing clouds.9 mph66%29.83 "HgN/A
1:00 PM86 °FScattered clouds.9 mph70%29.83 "HgN/A
12:30 PM86 °FScattered clouds.9 mph70%29.83 "HgN/A
12:00 PM86 °FScattered clouds.10 mph70%29.86 "HgN/A
11:30 AM86 °FScattered clouds.12 mph66%29.86 "HgN/A
11:00 AM86 °FScattered clouds.7 mph66%29.89 "HgN/A
10:30 AM86 °FPartly sunny.9 mph66%29.89 "HgN/A
10:02 AM86 °FScattered clouds.10 mph66%29.89 "HgN/A
9:30 AM86 °FPartly sunny.12 mph62%29.89 "HgN/A
9:00 AM84 °FPartly sunny.9 mph74%29.89 "HgN/A
8:30 AM84 °FPartly sunny.12 mph66%29.89 "HgN/A
8:00 AM84 °FBroken clouds.9 mph70%29.86 "HgN/A
7:30 AM82 °FScattered clouds.8 mph79%29.86 "HgN/A
7:00 AM82 °FBroken clouds.7 mph74%29.83 "HgN/A
6:30 AM81 °FScattered clouds.7 mph84%29.83 "HgN/A
6:00 AM81 °FBroken clouds.6 mph84%29.83 "HgN/A
5:00 AM82 °FPartly cloudy.9 mph79%29.80 "HgN/A
4:00 AM82 °FPartly cloudy.8 mph74%29.80 "HgN/A
Weather by CustomWeather, © 2015

See weather overviewHow to use our weather pages